Simultaneous Nadir Overpasses (SNOs) Predictions

Prediction of SNOs between GOES-15 and TERRA Satellite Orbit:

Table of predicted SNOs for the next 14.0 days since TLE Epoch: 2/3/2017
Index Date Time (GOES-15) GOES-15 Lat,Lon TERRA Lat,Lon Distance(km) Time Diff (sec)
1 02/03/2017 19:33:42 0.04,-135.36 0.07,-135.53 18.66 80
2 02/05/2017 19:18:51 0.03,-135.38 -0.59,-132.58 319.08 80
3 02/06/2017 07:42:55 -0.04,-135.41 -0.51,-137.77 267.57 80
4 02/08/2017 07:28:03 -0.04,-135.42 0.10,-134.81 69.55 80
5 02/10/2017 07:15:51 -0.04,-135.43 0.72,-131.85 406.44 80
6 02/10/2017 19:39:46 0.04,-135.40 0.40,-137.00 183.07 80
7 02/12/2017 19:24:54 0.04,-135.40 -0.23,-134.05 153.63 80
8 02/13/2017 07:46:18 -0.04,-135.43 -0.87,-139.24 433.41 80
9 02/14/2017 19:12:42 0.04,-135.41 -0.86,-131.09 490.02 80
10 02/15/2017 07:34:06 -0.04,-135.44 -0.23,-136.29 97.06 80
11 02/17/2017 07:24:34 -0.04,-135.43 0.42,-133.33 238.83 80




NCC Satellite Simultaneous Nadir Overpasses (SNOs) Prediction Service
